TimeEDT,TemperatureF,Dew PointF,Humidity,Sea Level PressureIn,VisibilityMPH,Wind Direction,Wind SpeedMPH,Gust SpeedMPH,PrecipitationIn,Events,Conditions,WindDirDegrees,DateUTC
12:15 AM,30.2,20.3,67,30.21,10.0,WNW,5.8,-,N/A,,Overcast,290,2013-03-28 04:15:00
12:35 AM,29.8,20.1,67,30.21,10.0,WNW,4.6,-,N/A,,Mostly Cloudy,290,2013-03-28 04:35:00
1:15 AM,29.8,20.3,68,30.20,10.0,WNW,4.6,-,N/A,,Overcast,300,2013-03-28 05:15:00
1:35 AM,29.3,20.3,69,30.20,10.0,WNW,4.6,-,N/A,,Overcast,290,2013-03-28 05:35:00
1:55 AM,29.3,20.3,69,30.20,10.0,WNW,4.6,-,N/A,,Overcast,300,2013-03-28 05:55:00
2:15 AM,29.3,20.3,69,30.20,10.0,WNW,3.5,-,N/A,,Overcast,290,2013-03-28 06:15:00
2:35 AM,29.3,20.3,69,30.20,10.0,WNW,3.5,-,N/A,,Overcast,290,2013-03-28 06:35:00
2:55 AM,29.3,20.8,71,30.19,10.0,West,4.6,-,N/A,,Overcast,280,2013-03-28 06:55:00
3:15 AM,29.3,20.5,70,30.19,10.0,WNW,6.9,-,N/A,,Overcast,290,2013-03-28 07:15:00
3:35 AM,28.9,20.5,71,30.19,10.0,WNW,5.8,-,N/A,,Overcast,290,2013-03-28 07:35:00
3:55 AM,28.6,20.3,71,30.19,10.0,WNW,3.5,-,N/A,,Mostly Cloudy,290,2013-03-28 07:55:00
4:15 AM,28.9,20.5,71,30.19,10.0,WNW,4.6,-,N/A,,Overcast,290,2013-03-28 08:15:00
4:35 AM,28.9,20.3,70,30.19,10.0,WNW,3.5,-,N/A,,Overcast,290,2013-03-28 08:35:00
4:55 AM,28.9,20.5,71,30.19,10.0,WNW,5.8,-,N/A,,Overcast,290,2013-03-28 08:55:00
5:15 AM,28.9,20.7,71,30.19,10.0,West,3.5,-,N/A,,Overcast,280,2013-03-28 09:15:00
5:35 AM,28.9,20.7,71,30.19,10.0,WNW,4.6,-,N/A,,Overcast,290,2013-03-28 09:35:00
5:55 AM,28.9,20.8,72,30.19,10.0,West,4.6,-,N/A,,Overcast,280,2013-03-28 09:55:00
6:15 AM,28.9,20.8,72,30.20,10.0,West,4.6,-,N/A,,Overcast,280,2013-03-28 10:15:00
6:35 AM,28.8,21.0,73,30.20,10.0,WNW,3.5,-,N/A,,Overcast,290,2013-03-28 10:35:00
6:55 AM,28.9,20.8,72,30.20,10.0,West,4.6,-,N/A,,Overcast,280,2013-03-28 10:55:00
7:15 AM,29.1,20.5,70,30.20,10.0,WNW,4.6,-,N/A,,Overcast,290,2013-03-28 11:15:00
7:35 AM,29.1,20.3,70,30.21,10.0,West,4.6,-,N/A,,Overcast,270,2013-03-28 11:35:00
7:55 AM,29.1,21.0,72,30.21,10.0,WNW,5.8,-,N/A,,Overcast,300,2013-03-28 11:55:00
8:15 AM,29.1,21.2,72,30.22,10.0,Calm,Calm,-,N/A,,Overcast,0,2013-03-28 12:15:00
8:35 AM,29.3,21.6,73,30.22,10.0,NW,4.6,-,N/A,,Overcast,310,2013-03-28 12:35:00
8:55 AM,29.3,21.6,73,30.22,10.0,WNW,3.5,-,N/A,,Overcast,290,2013-03-28 12:55:00
9:15 AM,29.7,21.9,73,30.24,10.0,NW,4.6,-,N/A,,Overcast,310,2013-03-28 13:15:00
9:35 AM,30.0,22.3,73,30.24,10.0,NNW,4.6,-,N/A,,Overcast,330,2013-03-28 13:35:00
10:15 AM,30.9,21.2,67,30.24,10.0,NW,5.8,-,N/A,,Overcast,310,2013-03-28 14:15:00
10:35 AM,30.9,20.5,65,30.25,10.0,NNW,12.7,16.1,N/A,,Overcast,330,2013-03-28 14:35:00
10:55 AM,31.5,20.3,63,30.25,10.0,NW,8.1,-,N/A,,Overcast,310,2013-03-28 14:55:00
11:15 AM,31.6,20.3,63,30.25,10.0,NW,5.8,-,N/A,,Overcast,320,2013-03-28 15:15:00
11:35 AM,32.0,19.6,60,30.25,10.0,NW,9.2,16.1,N/A,,Overcast,320,2013-03-28 15:35:00
11:55 AM,32.4,19.9,60,30.25,10.0,NW,6.9,-,N/A,,Overcast,310,2013-03-28 15:55:00
12:15 PM,32.5,19.9,60,30.25,10.0,NW,13.8,17.3,N/A,,Overcast,310,2013-03-28 16:15:00
12:35 PM,34.0,21.0,59,30.25,10.0,NW,6.9,16.1,N/A,,Overcast,320,2013-03-28 16:35:00
12:55 PM,34.3,21.4,59,30.25,10.0,NW,8.1,18.4,N/A,,Mostly Cloudy,310,2013-03-28 16:55:00
1:15 PM,35.2,22.5,60,30.24,10.0,WSW,8.1,-,N/A,,Overcast,250,2013-03-28 17:15:00
1:35 PM,35.6,22.3,58,30.24,10.0,WNW,9.2,17.3,N/A,,Mostly Cloudy,290,2013-03-28 17:35:00
1:55 PM,36.5,22.6,57,30.24,10.0,NW,8.1,-,N/A,,Mostly Cloudy,320,2013-03-28 17:55:00
2:15 PM,37.0,22.5,56,30.24,10.0,NW,6.9,-,N/A,,Scattered Clouds,320,2013-03-28 18:15:00
2:35 PM,37.8,22.1,53,30.23,10.0,NW,11.5,20.7,N/A,,Scattered Clouds,320,2013-03-28 18:35:00
2:55 PM,38.5,22.8,53,30.22,10.0,NW,5.8,-,N/A,,Mostly Cloudy,310,2013-03-28 18:55:00
3:15 PM,39.2,24.1,55,30.22,10.0,West,6.9,-,N/A,,Mostly Cloudy,280,2013-03-28 19:15:00
3:35 PM,39.4,23.4,53,30.22,10.0,NW,5.8,-,N/A,,Overcast,310,2013-03-28 19:35:00
3:55 PM,40.1,22.6,50,30.21,10.0,NNW,11.5,19.6,N/A,,Mostly Cloudy,330,2013-03-28 19:55:00
4:15 PM,39.7,21.9,49,30.21,10.0,NNW,8.1,-,N/A,,Scattered Clouds,330,2013-03-28 20:15:00
4:35 PM,41.2,22.8,48,30.21,10.0,WNW,8.1,17.3,N/A,,Scattered Clouds,300,2013-03-28 20:35:00
4:55 PM,40.8,22.8,49,30.21,10.0,WNW,4.6,-,N/A,,Mostly Cloudy,300,2013-03-28 20:55:00
5:15 PM,40.8,22.5,48,30.21,10.0,NNW,5.8,-,N/A,,Mostly Cloudy,330,2013-03-28 21:15:00
5:35 PM,41.4,22.1,46,30.21,10.0,NNW,10.4,-,N/A,,Scattered Clouds,340,2013-03-28 21:35:00
6:15 PM,41.2,21.7,46,30.21,10.0,NNW,5.8,-,N/A,,Scattered Clouds,340,2013-03-28 22:15:00
6:35 PM,41.2,21.2,45,30.21,10.0,WNW,6.9,-,N/A,,Mostly Cloudy,300,2013-03-28 22:35:00
6:55 PM,41.0,20.7,44,30.21,10.0,NW,6.9,-,N/A,,Overcast,320,2013-03-28 22:55:00
7:15 PM,40.5,20.8,46,30.22,10.0,NW,3.5,-,N/A,,Overcast,320,2013-03-28 23:15:00
7:35 PM,39.6,20.3,46,30.22,10.0,NNW,9.2,-,N/A,,Scattered Clouds,330,2013-03-28 23:35:00
7:55 PM,38.7,20.3,48,30.22,10.0,NNW,5.8,-,N/A,,Clear,330,2013-03-28 23:55:00
8:15 PM,38.5,19.9,47,30.22,10.0,NW,3.5,-,N/A,,Clear,320,2013-03-29 00:15:00
8:35 PM,38.3,19.9,48,30.24,10.0,NW,3.5,-,N/A,,Clear,320,2013-03-29 00:35:00
8:55 PM,37.6,19.9,49,30.24,10.0,NW,3.5,-,N/A,,Clear,310,2013-03-29 00:55:00
9:15 PM,37.4,19.8,49,30.24,10.0,WNW,3.5,-,N/A,,Clear,300,2013-03-29 01:15:00
9:35 PM,37.0,19.8,50,30.25,10.0,West,4.6,-,N/A,,Clear,280,2013-03-29 01:35:00
9:55 PM,36.7,19.6,50,30.25,10.0,WNW,3.5,-,N/A,,Clear,290,2013-03-29 01:55:00
10:15 PM,36.1,19.8,51,30.26,10.0,WNW,3.5,-,N/A,,Clear,300,2013-03-29 02:15:00
10:35 PM,35.8,19.9,53,30.26,10.0,West,3.5,-,N/A,,Clear,280,2013-03-29 02:35:00
10:55 PM,35.4,19.9,53,30.26,10.0,WNW,3.5,-,N/A,,Clear,290,2013-03-29 02:55:00
11:15 PM,35.1,19.9,54,30.26,10.0,West,4.6,-,N/A,,Clear,280,2013-03-29 03:15:00
11:35 PM,34.9,19.8,54,30.26,10.0,West,3.5,-,N/A,,Clear,270,2013-03-29 03:35:00
11:55 PM,35.4,19.6,53,30.26,10.0,West,3.5,-,N/A,,Clear,280,2013-03-29 03:55:00